Weather History for Mosby, MO

Change the Weather History Date:

Monday, April 8, 2013

  Actual Average (KMKC) Record (KMKC)
Temperature  
Mean Temperature 62 °F -  
Max Temperature 71 °F 61 °F 82 °F (2001)
Min Temperature 53 °F 42 °F 24 °F (2007)
Degree Days  
Heating Degree Days 3    
Growing Degree Days 12 (Base 50)    
Moisture  
Dew Point 57 °F    
Average Humidity 83    
Maximum Humidity 100    
Minimum Humidity 69    
Precipitation  
Precipitation 0.00 in - - ()
Sea Level Pressure  
Sea Level Pressure 29.71 in    
Wind  
Wind Speed 5 mph (SSE)    
Max Wind Speed 20 mph    
Max Gust Speed 31 mph    
Visibility 10 miles    
Events Rain , Thunderstorm    
Averages and records for this station are not official NWS values.
T = Trace of Precipitation, MM = Missing Value Source: NWS Daily Summary

Daily Weather History Graph

Daily Weather History Graph

Search for Another Location

Airport:

Trip Planner

Search our weather history database for the weather conditions in past years. The results will help you decide how hot, cold, wet, or windy it might be!

Date:

Astronomy

Apr. 08, 2013 Rise Set
Actual Time 6:50 AM CDT 7:48 PM CDT
Civil Twilight 6:22 AM CDT 8:15 PM CDT
Nautical Twilight 5:50 AM CDT 8:48 PM CDT
Astronomical Twilight 5:16 AM CDT 9:22 PM CDT
Moon 5:40 AM CDT (4/8) 6:23 PM CDT (4/8)
Length of Visible Light 13h 52m
Length of Day
12h 57m
Waning Crescent, 3% of the Moon is Illuminated
Apr 8
Waning Crescent
Apr 10
New
Apr 18
First Quarter
Apr 25
Full
May 2
Last Quarter

Hourly Weather History & Observations

Time (CDT) Temp. Dew Point Humidity Pressure Visibility Wind Dir Wind Speed Gust Speed Precip Events Conditions
12:15 AM 55.4 °F 53.6 °F 94% 29.69 in 10.0 mi Calm Calm - N/A Rain , Thunderstorm Light Thunderstorms and Rain
12:35 AM 55.4 °F 53.6 °F 94% 29.73 in 10.0 mi WNW 19.6 mph 31.1 mph N/A Rain , Thunderstorm Light Thunderstorms and Rain
12:55 AM 55.4 °F 53.6 °F 94% 29.69 in 7.0 mi SW 9.2 mph 12.7 mph N/A Rain , Thunderstorm Light Thunderstorms and Rain
1:15 AM 55.4 °F 51.8 °F 88% 29.69 in 10.0 mi West 9.2 mph 16.1 mph N/A Rain , Thunderstorm Light Thunderstorms and Rain
1:35 AM 55.4 °F 51.8 °F 88% 29.69 in 10.0 mi West 6.9 mph - N/A   Clear
1:55 AM 55.4 °F 51.8 °F 88% 29.70 in 10.0 mi West 4.6 mph - N/A   Scattered Clouds
2:15 AM 53.6 °F 51.8 °F 94% 29.69 in 10.0 mi WSW 8.1 mph - N/A   Scattered Clouds
2:35 AM 53.6 °F 51.8 °F 94% 29.70 in 10.0 mi SW 5.8 mph - N/A   Mostly Cloudy
2:55 AM 53.6 °F 51.8 °F 94% 29.70 in 10.0 mi SW 3.5 mph - N/A   Mostly Cloudy
3:15 AM 53.6 °F 51.8 °F 94% 29.69 in 10.0 mi South 5.8 mph - N/A   Overcast
3:35 AM 53.6 °F 51.8 °F 94% 29.69 in 10.0 mi SSW 3.5 mph - N/A   Overcast
3:55 AM 55.4 °F 51.8 °F 88% 29.68 in 10.0 mi SSW 3.5 mph - N/A   Overcast
4:15 AM 55.4 °F 51.8 °F 88% 29.68 in 10.0 mi Calm Calm - N/A   Overcast
4:35 AM 55.4 °F 51.8 °F 88% 29.68 in 10.0 mi Calm Calm - N/A   Overcast
4:55 AM 55.4 °F 51.8 °F 88% 29.68 in 10.0 mi Calm Calm - N/A   Overcast
5:15 AM 55.4 °F 53.6 °F 94% 29.68 in 10.0 mi Calm Calm - N/A   Overcast
5:55 AM 55.4 °F 53.6 °F 94% 29.68 in 10.0 mi Calm Calm - N/A   Overcast
6:15 AM 55.4 °F 53.6 °F 94% 29.68 in 10.0 mi Calm Calm - N/A   Overcast
6:35 AM 53.6 °F 53.6 °F 100% 29.69 in 7.0 mi Calm Calm - N/A   Mostly Cloudy
6:55 AM 53.6 °F 53.6 °F 100% 29.70 in 5.0 mi Calm Calm - N/A   Mostly Cloudy
7:15 AM 53.6 °F 53.6 °F 100% 29.72 in 7.0 mi Calm Calm - N/A   Overcast
7:35 AM 53.6 °F 53.6 °F 100% 29.72 in 7.0 mi Calm Calm - N/A   Overcast
7:55 AM 55.4 °F 53.6 °F 94% 29.73 in 10.0 mi Calm Calm - N/A   Overcast
8:15 AM 55.4 °F 53.6 °F 94% 29.73 in 10.0 mi Calm Calm - N/A   Overcast
8:35 AM 55.4 °F 53.6 °F 94% 29.74 in 10.0 mi Calm Calm - N/A   Overcast
8:55 AM 57.2 °F 55.4 °F 94% 29.73 in 10.0 mi Calm Calm - N/A   Overcast
9:15 AM 59.0 °F 55.4 °F 88% 29.72 in 10.0 mi SE 3.5 mph - N/A   Scattered Clouds
9:35 AM 59.0 °F 57.2 °F 94% 29.71 in 10.0 mi SE 3.5 mph - N/A   Clear
9:55 AM 60.8 °F 57.2 °F 88% 29.72 in 10.0 mi SSE 5.8 mph - N/A   Clear
10:15 AM 60.8 °F 59.0 °F 94% 29.73 in 10.0 mi Calm Calm - N/A   Clear
10:35 AM 62.6 °F 59.0 °F 88% 29.73 in 10.0 mi Calm Calm - N/A   Clear
10:55 AM 62.6 °F 59.0 °F 88% 29.73 in 10.0 mi SSE 6.9 mph - N/A   Clear
11:15 AM 64.4 °F 59.0 °F 83% 29.73 in 10.0 mi Calm Calm - N/A   Clear
11:35 AM 66.2 °F 59.0 °F 78% 29.74 in 10.0 mi SSW 6.9 mph - N/A   Scattered Clouds
11:55 AM 68.0 °F 60.8 °F 78% 29.73 in 10.0 mi SSE 6.9 mph - N/A   Scattered Clouds
12:15 PM 68.0 °F 60.8 °F 78% 29.75 in 10.0 mi South 9.2 mph - N/A   Mostly Cloudy
12:35 PM 68.0 °F 60.8 °F 78% 29.75 in 10.0 mi South 6.9 mph - N/A   Overcast
12:55 PM 68.0 °F 60.8 °F 78% 29.74 in 10.0 mi South 3.5 mph - N/A   Overcast
1:15 PM 68.0 °F 60.8 °F 78% 29.73 in 10.0 mi SE 4.6 mph - N/A   Scattered Clouds
1:35 PM 69.8 °F 60.8 °F 73% 29.73 in 10.0 mi SSE 5.8 mph - N/A   Clear
1:55 PM 69.8 °F 60.8 °F 73% 29.73 in 10.0 mi SSE 4.6 mph - N/A   Mostly Cloudy
2:15 PM 69.8 °F 60.8 °F 73% 29.73 in 10.0 mi South 6.9 mph - N/A   Overcast
2:35 PM 69.8 °F 60.8 °F 73% 29.73 in 10.0 mi SE 6.9 mph - N/A   Overcast
2:55 PM 69.8 °F 60.8 °F 73% 29.73 in 10.0 mi SE 5.8 mph - N/A   Overcast
3:15 PM 69.8 °F 60.8 °F 73% 29.72 in 10.0 mi SE 6.9 mph - N/A   Overcast
3:35 PM 69.8 °F 60.8 °F 73% 29.72 in 10.0 mi ESE 8.1 mph - N/A   Overcast
3:55 PM 69.8 °F 60.8 °F 73% 29.70 in 10.0 mi ESE 4.6 mph - N/A   Overcast
4:15 PM 71.6 °F 62.6 °F 73% 29.69 in 10.0 mi SE 9.2 mph - N/A   Mostly Cloudy
4:35 PM 71.6 °F 60.8 °F 69% 29.69 in 10.0 mi SE 10.4 mph - N/A   Mostly Cloudy
5:35 PM 71.6 °F 60.8 °F 69% 29.68 in 10.0 mi SSE 8.1 mph - N/A   Overcast
5:55 PM 71.6 °F 60.8 °F 69% 29.69 in 10.0 mi SSE 10.4 mph - N/A   Mostly Cloudy
6:15 PM 71.6 °F 60.8 °F 69% 29.69 in 10.0 mi SSE 6.9 mph - N/A   Overcast
6:35 PM 71.6 °F 60.8 °F 69% 29.69 in 10.0 mi SSE 6.9 mph - N/A   Overcast
6:55 PM 71.6 °F 60.8 °F 69% 29.70 in 10.0 mi SSE 6.9 mph - N/A   Overcast
7:15 PM 69.8 °F 60.8 °F 73% 29.70 in 10.0 mi SSE 4.6 mph - N/A   Overcast
7:35 PM 69.8 °F 60.8 °F 73% 29.71 in 10.0 mi Calm Calm - N/A   Overcast
7:55 PM 69.8 °F 60.8 °F 73% 29.72 in 10.0 mi Calm Calm - N/A   Overcast
8:15 PM 69.8 °F 60.8 °F 73% 29.72 in 10.0 mi Calm Calm - N/A   Overcast
8:35 PM 69.8 °F 60.8 °F 73% 29.72 in 10.0 mi Calm Calm - N/A   Overcast
8:55 PM 68.0 °F 60.8 °F 78% 29.73 in 10.0 mi East 3.5 mph - N/A   Overcast
9:15 PM 68.0 °F 62.6 °F 83% 29.73 in 10.0 mi ESE 4.6 mph - N/A   Overcast
9:35 PM 68.0 °F 60.8 °F 78% 29.74 in 10.0 mi ESE 4.6 mph - N/A   Overcast
9:55 PM 68.0 °F 60.8 °F 78% 29.74 in 10.0 mi SE 4.6 mph - N/A Rain Light Rain
10:15 PM 68.0 °F 60.8 °F 78% 29.75 in 10.0 mi SSE 8.1 mph - N/A   Overcast
10:35 PM 68.0 °F 60.8 °F 78% 29.75 in 10.0 mi SSE 5.8 mph - N/A   Overcast
10:55 PM 68.0 °F 60.8 °F 78% 29.75 in 10.0 mi SE 5.8 mph - N/A   Overcast
11:15 PM 68.0 °F 60.8 °F 78% 29.75 in 10.0 mi SE 5.8 mph - N/A   Overcast
11:35 PM 68.0 °F 59.0 °F 73% 29.74 in 10.0 mi SE 6.9 mph - N/A   Overcast
11:55 PM 68.0 °F 59.0 °F 73% 29.73 in 10.0 mi SE 6.9 mph - N/A   Overcast